Weather History for KAST - December, 2013

Change the Weather History Date:

Thursday, December 12, 2013

  Actual Average Record
Temperature  
Mean Temperature 36 °F 42 °F  
Max Temperature 46 °F 49 °F 61 °F (2002)
Min Temperature 26 °F 36 °F 12 °F (1972)
Degree Days  
Heating Degree Days 29 23  
Month to date heating degree days 391 262  
Since 1 July heating degree days 1744 1675  
Cooling Degree Days 0 0  
Month to date cooling degree days 0 0  
Year to date cooling degree days 9 12  
Moisture  
Dew Point 35 °F    
Average Humidity 93    
Maximum Humidity 100    
Minimum Humidity 85    
Precipitation  
Precipitation 0.49 in 0.31 in 1.85 in (1908)
Month to date precipitation 2.42 4.03  
Year to date precipitation 56.63 61.40  
Snow  
Snow 0.00 in - - ()
Month to date snowfall 0.0  
Snow Depth 0.00 in    
Sea Level Pressure  
Sea Level Pressure 30.09 in    
Wind  
Wind Speed 4 mph (East)    
Max Wind Speed 17 mph    
Max Gust Speed 26 mph    
Visibility 5 miles    
Events Rain    
T = Trace of Precipitation, MM = Missing Value Source: NWS Daily Summary

Daily Weather History Graph

Daily Weather History Graph

Search for Another Location

Airport or City:

Trip Planner

Search our weather history database for the weather conditions in past years. The results will help you decide how hot, cold, wet, or windy it might be!

Date:

Astronomy

Dec. 12, 2013 Rise Set
Actual Time 7:49 AM PST 4:29 PM PST
Civil Twilight 7:14 AM PST 5:04 PM PST
Nautical Twilight 6:36 AM PST 5:42 PM PST
Astronomical Twilight 6:00 AM PST 6:18 PM PST
Moon 1:50 PM PST (12/12) 3:05 AM PST (12/12)
Length of Visible Light 9h 49m
Length of Day
8h 40m
Waxing Gibbous, 81% of the Moon is Illuminated
Dec 12
Waxing Gibbous
Dec 17
Full
Dec 25
Last Quarter
Jan 1
New
Jan 7
First Quarter

Hourly Weather History & Observations

Time (PST) Temp. Windchill Dew Point Humidity Pressure Visibility Wind Dir Wind Speed Gust Speed Precip Events Conditions
12:55 AM 30.0 °F 26.5 °F 28.9 °F 96% 30.14 in 6.0 mi ESE 3.5 mph - N/A   Clear
1:55 AM 30.9 °F 26.2 °F 30.0 °F 96% 30.12 in 7.0 mi ESE 4.6 mph - N/A   Clear
2:55 AM 28.9 °F 23.9 °F 28.0 °F 96% 30.12 in 6.0 mi SE 4.6 mph - N/A   Clear
3:55 AM 27.0 °F - 26.1 °F 96% 30.12 in 5.0 mi Calm Calm - N/A   Clear
4:55 AM 27.0 °F - 26.1 °F 96% 30.12 in 6.0 mi Calm Calm - N/A   Clear
5:55 AM 28.9 °F 22.8 °F 28.9 °F 100% 30.11 in 7.0 mi SE 5.8 mph - N/A   Clear
6:26 AM 28.9 °F 20.4 °F 28.9 °F 100% 30.10 in 8.0 mi ESE 9.2 mph - N/A   Mostly Cloudy
6:52 AM 30.2 °F 22.6 °F 28.4 °F 93% 30.09 in 9.0 mi ESE 8.1 mph - N/A   Partly Cloudy
6:55 AM 30.0 °F 22.4 °F 28.9 °F 96% 30.09 in 9.0 mi ESE 8.1 mph - N/A   Partly Cloudy
7:55 AM 32.0 °F 27.5 °F 30.0 °F 92% 30.09 in 10.0 mi ESE 4.6 mph - N/A   Overcast
8:55 AM 33.1 °F 27.7 °F 30.9 °F 92% 30.09 in 10.0 mi ESE 5.8 mph - N/A   Overcast
9:44 AM 36.0 °F - 33.1 °F 89% 30.09 in 10.0 mi Calm Calm - N/A   Overcast
9:55 AM 36.0 °F - 33.1 °F 89% 30.09 in 10.0 mi Calm Calm - N/A   Overcast
10:55 AM 39.0 °F 35.7 °F 36.0 °F 89% 30.07 in 10.0 mi ENE 4.6 mph - 0.01 in Rain Light Rain
11:55 AM 39.9 °F 37.8 °F 39.0 °F 97% 30.06 in 5.0 mi Variable 3.5 mph - 0.00 in Rain Light Rain
12:00 PM 41.0 °F - 39.0 °F 93% 30.06 in 1.8 mi Calm Calm - 0.01 in Rain Light Rain
12:19 PM 39.0 °F 34.0 °F 37.9 °F 96% 30.05 in 1.2 mi Variable 6.9 mph - 0.04 in Rain Rain
12:29 PM 39.0 °F 34.8 °F 39.0 °F 100% 30.05 in 2.0 mi East 5.8 mph - 0.06 in Rain Rain
12:55 PM 39.9 °F 37.8 °F 39.9 °F 100% 30.06 in 2.0 mi Variable 3.5 mph - 0.13 in Rain Rain
1:12 PM 39.0 °F 34.0 °F 39.0 °F 100% 30.05 in 2.5 mi East 6.9 mph - 0.04 in Rain Light Rain
1:22 PM 39.0 °F 31.4 °F 39.0 °F 100% 30.05 in 2.0 mi East 12.7 mph - 0.05 in Rain Light Rain
1:28 PM 37.9 °F 32.7 °F 37.9 °F 100% 30.05 in 1.8 mi East 6.9 mph - 0.05 in Rain Light Rain
1:38 PM 39.0 °F - 37.9 °F 96% 30.05 in 1.5 mi Calm Calm - 0.06 in Rain Light Rain
1:45 PM 37.9 °F 34.4 °F 37.9 °F 100% 30.05 in 1.2 mi ESE 4.6 mph - 0.07 in Rain Light Rain
1:52 PM 37.4 °F - 37.4 °F 100% 30.05 in 1.5 mi Calm Calm - 0.07 in Rain Light Rain
1:55 PM 37.9 °F - 37.9 °F 100% 30.05 in 1.5 mi Calm Calm - 0.08 in Rain Light Rain
2:14 PM 37.0 °F 31.0 °F 37.0 °F 100% 30.05 in 2.0 mi East 8.1 mph - 0.01 in Rain Light Rain
2:30 PM 37.0 °F 33.3 °F 37.0 °F 100% 30.05 in 3.0 mi ESE 4.6 mph - 0.01 in   Overcast
2:53 PM 37.4 °F 34.9 °F 37.4 °F 100% 30.05 in 1.8 mi East 3.5 mph - 0.01 in   Overcast
2:54 PM 37.0 °F 33.3 °F 37.0 °F 100% 30.05 in 1.8 mi East 4.6 mph - 0.01 in   Overcast
3:10 PM 37.9 °F - 37.9 °F 100% 30.05 in 3.0 mi Calm Calm - 0.01 in   Overcast
3:26 PM 41.0 °F - 39.9 °F 96% 30.05 in 4.0 mi North - - 0.01 in   Overcast
3:55 PM 46.0 °F 39.9 °F 45.0 °F 96% 30.05 in 10.0 mi SSW 13.8 mph 25.3 mph 0.01 in   Overcast
4:48 PM 46.0 °F 41.0 °F 44.1 °F 93% 30.05 in 10.0 mi South 10.4 mph 21.9 mph N/A   Overcast
4:55 PM 46.0 °F 39.6 °F 44.1 °F 93% 30.06 in 10.0 mi South 15.0 mph 21.9 mph N/A   Overcast
5:30 PM 39.9 °F 36.7 °F 39.0 °F 97% 30.06 in 7.0 mi ENE 4.6 mph - N/A   Overcast
5:55 PM 36.0 °F 29.6 °F 36.0 °F 100% 30.06 in 4.0 mi East 8.1 mph - N/A   Overcast
6:15 PM 35.1 °F 32.2 °F 35.1 °F 100% 30.07 in 2.5 mi East 3.5 mph - 0.00 in Rain Light Rain
6:28 PM 35.1 °F 28.6 °F 35.1 °F 100% 30.08 in 4.0 mi East 8.1 mph - 0.00 in Rain Light Rain
6:55 PM 35.1 °F 32.2 °F - N/A% 30.09 in 4.0 mi ENE 3.5 mph - 0.00 in Rain Light Rain
7:55 PM 34.0 °F - - N/A% 30.10 in 3.0 mi Calm Calm - 0.02 in Rain Light Rain
8:04 PM 34.0 °F - - N/A% 30.10 in 2.5 mi Calm Calm - 0.01 in Rain Light Rain
8:55 PM 34.0 °F - - N/A% 30.11 in 1.8 mi Calm Calm - 0.04 in Rain Light Rain
9:25 PM 34.0 °F 31.0 °F - N/A% 30.12 in 3.0 mi ENE 3.5 mph - 0.03 in Rain Light Rain
9:35 PM 34.0 °F 31.0 °F - N/A% 30.13 in 1.8 mi NNW 3.5 mph - 0.04 in Rain Light Rain
9:55 PM 34.0 °F - - N/A% 30.13 in 1.8 mi Calm Calm - 0.08 in Rain Light Rain
10:10 PM 34.0 °F 31.0 °F - N/A% 30.13 in 1.2 mi East 3.5 mph - 0.02 in Rain Light Rain
10:34 PM 34.0 °F 31.0 °F - N/A% 30.14 in 2.0 mi East 3.5 mph - 0.03 in Rain Light Rain
10:46 PM 34.0 °F 31.0 °F - N/A% 30.14 in 1.5 mi Variable 3.5 mph - 0.07 in Rain Rain
10:55 PM 34.0 °F - - N/A% 30.15 in 2.0 mi Calm Calm - 0.09 in Rain Light Rain
11:09 PM 34.0 °F 31.0 °F - N/A% 30.15 in 1.8 mi East 3.5 mph - 0.00 in Rain Light Rain
11:55 PM 34.0 °F 29.8 °F - N/A% 30.16 in 1.5 mi ESE 4.6 mph - 0.02 in Rain Light Rain